Location: Kirkcaldy
(50.3333°N, 113.2333°W)
Time: 05:36:35
(UTC+00:00)

Tiangong - Visible Passes

Search period start: 05 June 2023 00:00
Search period end: 15 June 2023 00:00
Orbit: 386 x 391 km, 41.5° (Epoch: 04 June)

Date Brightness Start Highest point End Pass type
(mag) Time Alt. Az. Time Alt. Az. Time Alt. Az.
06 Jun 0.0 10:08:37 12° SSW 10:09:54 14° SSE 10:11:42 10° SE visible
07 Jun 0.4 09:12:36 10° SE 09:12:36 10° SE 09:12:47 10° SE visible
08 Jun -0.3 09:48:49 16° S 09:49:24 16° S 09:51:30 10° SE visible
09 Jun 0.5 08:52:49 10° SE 08:52:49 10° SE 08:52:51 10° SE visible
09 Jun -0.3 10:25:06 10° SW 10:27:12 16° S 10:29:19 10° SE visible
10 Jun -0.3 09:29:10 17° S 09:29:10 17° S 09:30:55 10° SE visible
11 Jun -0.3 10:05:42 13° SSW 10:06:25 14° SSW 10:08:14 10° SSE visible
